Robinson, IL

7:40 AM CDT on August 17, 2017 (GMT -0500)
Robinson Municipal

Weather History for KRSV - February, 2013

Change the Weather History Date:

Friday, February 1, 2013

  Actual Average (KLWV) Record (KLWV)
Temperature  
Mean Temperature 16 °F -  
Max Temperature 24 °F 39 °F 64 °F (2012)
Min Temperature 10 °F 24 °F 6 °F (2004)
Degree Days  
Heating Degree Days 48    
Moisture  
Dew Point 7 °F    
Average Humidity 64    
Maximum Humidity 75    
Minimum Humidity 55    
Precipitation  
Precipitation 0.00 in - - ()
Sea Level Pressure  
Sea Level Pressure 30.40 in    
Wind  
Wind Speed 12 mph (SW)    
Max Wind Speed 21 mph    
Max Gust Speed 31 mph    
Visibility 10 miles    
Events Snow    
Averages and records for this station are not official NWS values.
T = Trace of Precipitation, MM = Missing Value Source: NWS Daily Summary

Daily Weather History Graph

Daily Weather History Graph

Search for Another Location

Airport or City:

Trip Planner

Search our weather history database for the weather conditions in past years. The results will help you decide how hot, cold, wet, or windy it might be!

Date:

Astronomy

Feb. 01, 2013 Rise Set
Actual Time 6:56 AM CST 5:12 PM CST
Civil Twilight 6:28 AM CST 5:40 PM CST
Nautical Twilight 5:56 AM CST 6:12 PM CST
Astronomical Twilight 5:25 AM CST 6:43 PM CST
Moon 11:15 PM CST (2/1) 9:33 AM CST (2/1)
Length of Visible Light 11h 11m
Length of Day
10h 15m
Waning Gibbous, 70% of the Moon is Illuminated
Feb 1
Waning Gibbous
Feb 3
Last Quarter
Feb 10
New
Feb 17
First Quarter
Feb 25
Full

Hourly Weather History & Observations

Time (CST) Temp. Windchill Dew Point Humidity Pressure Visibility Wind Dir Wind Speed Gust Speed Precip Events Conditions
12:15 AM 12.9 °F -3.9 °F 0.1 °F 57% 30.31 in 10.0 mi WNW 17.3 mph 21.9 mph N/A   Scattered Clouds
12:35 AM 12.6 °F -5.8 °F -0.8 °F 55% 30.33 in 10.0 mi West 20.7 mph 31.1 mph N/A   Clear
12:55 AM 12.2 °F -4.3 °F -0.4 °F 57% 30.34 in 10.0 mi WNW 16.1 mph - N/A   Clear
1:15 AM 12.7 °F -1.8 °F 1.6 °F 61% 30.34 in 10.0 mi WNW 12.7 mph - N/A   Mostly Cloudy
1:35 AM 12.9 °F -2.2 °F 2.8 °F 64% 30.35 in 10.0 mi WNW 13.8 mph - N/A   Overcast
1:55 AM 12.4 °F -4.6 °F 2.1 °F 64% 30.36 in 10.0 mi West 17.3 mph - N/A   Mostly Cloudy
2:15 AM 12.2 °F -3.1 °F 4.5 °F 71% 30.37 in 7.0 mi WNW 13.8 mph - N/A   Mostly Cloudy
2:55 AM 11.3 °F -3.6 °F 4.6 °F 75% 30.38 in 5.0 mi WNW 12.7 mph 20.7 mph N/A   Haze
3:15 AM 11.7 °F -5.5 °F 4.3 °F 72% 30.39 in 5.0 mi West 17.3 mph 21.9 mph N/A Snow Light Snow
3:35 AM 11.7 °F -5.5 °F 3.6 °F 70% 30.39 in 7.0 mi WNW 17.3 mph 21.9 mph N/A Snow Light Snow
3:55 AM 11.5 °F -5.8 °F 2.5 °F 67% 30.39 in 10.0 mi West 17.3 mph 24.2 mph N/A   Mostly Cloudy
4:15 AM 11.3 °F -6.0 °F 1.0 °F 63% 30.40 in 7.0 mi WNW 17.3 mph 21.9 mph N/A   Mostly Cloudy
4:55 AM 10.8 °F -4.3 °F 0.9 °F 64% 30.40 in 10.0 mi WNW 12.7 mph - N/A   Scattered Clouds
5:15 AM 10.4 °F -3.3 °F 0.5 °F 64% 30.40 in 10.0 mi WNW 10.4 mph - N/A   Clear
5:35 AM 10.4 °F -1.5 °F 1.2 °F 66% 30.40 in 10.0 mi West 8.1 mph - N/A   Clear
5:55 AM 10.4 °F -2.4 °F 0.9 °F 65% 30.41 in 10.0 mi WNW 9.2 mph - N/A   Clear
6:15 AM 10.2 °F -1.7 °F 1.4 °F 68% 30.42 in 10.0 mi West 8.1 mph - N/A   Clear
6:35 AM 10.0 °F -1.9 °F 1.2 °F 68% 30.42 in 10.0 mi West 8.1 mph - N/A   Clear
6:55 AM 10.0 °F -0.9 °F 1.6 °F 69% 30.44 in 10.0 mi West 6.9 mph - N/A   Clear
7:15 AM 10.4 °F -1.5 °F 2.3 °F 70% 30.45 in 10.0 mi WSW 8.1 mph - N/A   Clear
7:35 AM 11.1 °F -1.6 °F 2.8 °F 69% 30.46 in 10.0 mi WSW 9.2 mph - N/A   Scattered Clouds
7:55 AM 11.5 °F -1.9 °F 2.7 °F 68% 30.47 in 10.0 mi West 10.4 mph - N/A   Mostly Cloudy
8:15 AM 12.0 °F -4.0 °F 3.0 °F 67% 30.47 in 10.0 mi West 15.0 mph 18.4 mph N/A   Mostly Cloudy
8:35 AM 11.8 °F -1.5 °F 2.5 °F 66% 30.47 in 10.0 mi West 10.4 mph 13.8 mph N/A   Mostly Cloudy
8:55 AM 12.0 °F -2.0 °F 2.1 °F 65% 30.47 in 10.0 mi West 11.5 mph - N/A   Scattered Clouds
9:15 AM 12.6 °F -0.6 °F 2.8 °F 65% 30.48 in 10.0 mi West 10.4 mph - N/A   Scattered Clouds
9:35 AM 14.0 °F 1.2 °F 4.6 °F 66% 30.49 in 10.0 mi WSW 10.4 mph - N/A   Scattered Clouds
9:55 AM 13.8 °F 2.7 °F 3.2 °F 63% 30.50 in 10.0 mi WSW 8.1 mph - N/A   Scattered Clouds
10:15 AM 13.5 °F -0.9 °F 3.6 °F 65% 30.51 in 10.0 mi West 12.7 mph - N/A   Scattered Clouds
10:35 AM 14.2 °F 4.1 °F 3.9 °F 64% 30.51 in 10.0 mi West 6.9 mph - N/A   Scattered Clouds
10:55 AM 15.8 °F 4.2 °F 5.2 °F 63% 30.51 in 10.0 mi SW 9.2 mph - N/A   Mostly Cloudy
11:15 AM 16.7 °F 4.5 °F 7.0 °F 66% 30.50 in 10.0 mi WSW 10.4 mph - N/A   Mostly Cloudy
11:35 AM 16.5 °F 4.3 °F 5.5 °F 62% 30.49 in 10.0 mi WSW 10.4 mph 17.3 mph N/A   Mostly Cloudy
11:55 AM 17.6 °F 6.4 °F 7.3 °F 64% 30.48 in 10.0 mi SSW 9.2 mph - N/A   Scattered Clouds
12:15 PM 18.0 °F 5.4 °F 6.6 °F 61% 30.47 in 10.0 mi SW 11.5 mph - N/A   Scattered Clouds
12:35 PM 18.1 °F 7.1 °F 5.7 °F 58% 30.46 in 10.0 mi WSW 9.2 mph - N/A   Scattered Clouds
12:55 PM 19.9 °F 9.3 °F 7.7 °F 59% 30.46 in 10.0 mi SW 9.2 mph - N/A   Scattered Clouds
1:15 PM 20.5 °F 9.2 °F 8.6 °F 60% 30.44 in 10.0 mi SW 10.4 mph 16.1 mph N/A   Scattered Clouds
1:35 PM 19.8 °F 11.9 °F 7.0 °F 58% 30.43 in 10.0 mi WSW 5.8 mph - N/A   Scattered Clouds
1:55 PM 20.7 °F 9.5 °F 7.3 °F 56% 30.43 in 10.0 mi SSW 10.4 mph - N/A   Scattered Clouds
2:15 PM 21.4 °F 10.4 °F 9.0 °F 59% 30.42 in 10.0 mi SW 10.4 mph - N/A   Scattered Clouds
2:35 PM 21.4 °F 11.9 °F 9.0 °F 59% 30.42 in 10.0 mi SSW 8.1 mph - N/A   Scattered Clouds
2:55 PM 21.6 °F 10.6 °F 7.7 °F 55% 30.42 in 10.0 mi SSW 10.4 mph - N/A   Clear
3:35 PM 21.9 °F 9.8 °F 9.1 °F 58% 30.42 in 10.0 mi SSW 12.7 mph - N/A   Scattered Clouds
3:55 PM 22.1 °F 10.6 °F 9.3 °F 58% 30.41 in 10.0 mi SSW 11.5 mph - N/A   Scattered Clouds
4:15 PM 21.9 °F 11.0 °F 7.9 °F 55% 30.41 in 10.0 mi SSW 10.4 mph 18.4 mph N/A   Scattered Clouds
4:35 PM 21.7 °F 13.2 °F 8.6 °F 57% 30.40 in 10.0 mi South 6.9 mph - N/A   Clear
4:55 PM 21.0 °F 11.4 °F 8.1 °F 57% 30.39 in 10.0 mi South 8.1 mph - N/A   Clear
5:15 PM 20.3 °F 10.6 °F 9.3 °F 63% 30.37 in 10.0 mi SSE 8.1 mph - N/A   Clear
5:35 PM 20.8 °F 11.2 °F 9.0 °F 60% 30.38 in 10.0 mi South 8.1 mph - N/A   Mostly Cloudy
5:55 PM 21.2 °F 11.7 °F 9.3 °F 60% 30.39 in 10.0 mi SSW 8.1 mph - N/A   Overcast
6:15 PM 21.2 °F 11.7 °F 9.3 °F 60% 30.39 in 10.0 mi South 8.1 mph - N/A   Overcast
6:35 PM 21.7 °F 11.5 °F 9.3 °F 59% 30.39 in 10.0 mi South 9.2 mph - N/A   Overcast
6:55 PM 21.9 °F 12.5 °F 10.4 °F 61% 30.40 in 10.0 mi South 8.1 mph - N/A   Overcast
7:15 PM 22.1 °F 12.0 °F 10.4 °F 61% 30.39 in 10.0 mi South 9.2 mph - N/A   Overcast
7:35 PM 22.1 °F 14.7 °F 10.8 °F 62% 30.38 in 10.0 mi South 5.8 mph - N/A   Overcast
7:55 PM 21.6 °F 12.1 °F 11.3 °F 65% 30.37 in 10.0 mi SSE 8.1 mph - N/A   Mostly Cloudy
8:15 PM 21.0 °F 13.4 °F 11.7 °F 67% 30.36 in 10.0 mi SSE 5.8 mph - N/A   Clear
8:35 PM 20.8 °F 14.4 °F 11.8 °F 68% 30.36 in 10.0 mi SSE 4.6 mph - N/A   Clear
8:55 PM 20.3 °F 13.8 °F 12.9 °F 73% 30.35 in 10.0 mi SE 4.6 mph - N/A   Clear
9:15 PM 20.3 °F 12.5 °F 13.5 °F 75% 30.34 in 10.0 mi SE 5.8 mph - N/A   Clear
9:35 PM 20.7 °F 13.0 °F 13.3 °F 73% 30.33 in 10.0 mi SE 5.8 mph - N/A   Clear
9:55 PM 21.0 °F 12.4 °F 13.6 °F 73% 30.32 in 10.0 mi SSE 6.9 mph - N/A   Scattered Clouds
10:15 PM 22.1 °F 12.0 °F 13.6 °F 70% 30.32 in 10.0 mi SSE 9.2 mph - N/A   Overcast
10:35 PM 22.8 °F 12.9 °F 14.2 °F 69% 30.31 in 10.0 mi SSE 9.2 mph - N/A   Overcast
10:55 PM 23.0 °F 13.9 °F 14.5 °F 70% 30.31 in 10.0 mi SSE 8.1 mph - N/A   Overcast
11:15 PM 23.7 °F 14.0 °F 15.1 °F 70% 30.30 in 10.0 mi SSE 9.2 mph - N/A   Overcast
11:35 PM 23.9 °F 15.0 °F 15.6 °F 71% 30.30 in 10.0 mi SSE 8.1 mph - N/A   Overcast
11:55 PM 24.4 °F 15.6 °F 16.3 °F 71% 30.29 in 10.0 mi South 8.1 mph - N/A   Overcast